Location: Canyon Rim
(40.8777°N, 111.8641°W)
Time: 08:34:43
(UTC+00:00)

X-37B - Pass Details

Date: 22 April 2021
Orbit: 386 x 389 km, 45.0° (Epoch: 08 May)

Event Time Altitude Azimuth Distance (km) Brightness Sun altitude
Exits shadow 10:18:47 35° 27° (NNE) 650 2.2 -23.5°
Drops below altitude 10° 10:21:07 10° 64° (ENE) 1,414 4.4 -23.2°
Sets 10:23:16 0° 72° (ENE) 2,269 5.6 -22.9°
